Regional Weather Roundup
Issued by NWS

Home | Current Version | Previous Version | Graphics & Text | Print | Product List | Glossary On
Versions: 1 2 3 4 5 6 7 8 9 10 11 12 13 14 15 16 17 18 19 20 21 22 23 24 25 26 27 28 29 30 31 32 33 34 35 36 37 38 39 40 41 42 43 44 45 46 47 48 49 50
000
ASUS43 KMPX 200810
RWRMN
WEATHER ROUNDUP FOR MINNESOTA
NATIONAL WEATHER SERVICE TWIN CITIES/CHANHASSEN MN
200 AM CST MON NOV 20 2017


NOTE: "FAIR" INDICATES FEW OR NO CLOUDS BELOW 12,000 FEET WITH NO
SIGNIFICANT WEATHER AND/OR OBSTRUCTIONS TO VISIBILITY. N/A MEANS
CURRENT SKY AND/OR WEATHER CONDITIONS ARE NOT AVAILABLE.

MNZ060>063-068>070-200900-
   Twin Cities Metro

CITY           SKY/WX    TMP DP  RH WIND       PRES   REMARKS
TWIN CITIES    PTCLDY    35  27  72 S5        29.76F WCI  31
ST PAUL        CLEAR     29  26  89 SE7       29.78F WCI  22
CRYSTAL        CLEAR     30  22  72 S6        29.74F WCI  24
BLAINE         CLEAR     34  27  75 S6        29.74F WCI  29
LAKEVILLE      CLEAR     28  27  93 S3        29.76F
EDEN PRAIRIE   CLEAR     33  25  72 S3        29.75F
SOUTH ST PAUL  CLEAR     27  24  87 CALM      29.77S
LAKE ELMO      FAIR      30  27  86 CALM      29.77F
$$
MNZ001>005-007-008-013>017-022>024-027-028-200900-
   Northwest Minnesota

CITY           SKY/WX    TMP DP  RH WIND       PRES   REMARKS
BEMIDJI        CLOUDY    13  11  89 SE3       29.64F
HALLOCK        CLOUDY    19  18  93 SE13      29.58F WCI   7
ROSEAU         CLOUDY    21  18  86 SE6       29.62F WCI  14
WARROAD        CLOUDY    18  16  93 CALM      29.63F
THIEF RVR FALL CLOUDY    20  18  92 SE7       29.62F WCI  11
CROOKSTON      CLOUDY    21  19  93 S9        29.62F WCI  11
FOSSTON        CLOUDY    21  21 100 S6        29.63F WCI  14
DETROIT LAKES  CLOUDY    27  25  93 S5        29.66F WCI  21
MOORHEAD       CLOUDY    23  19  86 SE9       29.65F WCI  13
PARK RAPIDS    CLOUDY    24  20  84 S5        29.66F WCI  18
MAHNOMEN       FAIR      23  20  87 S8        29.63F WCI  14
$$
MNZ006-009>011-018-025>026-200900-
   North Central Minnesota

CITY           SKY/WX    TMP DP  RH WIND       PRES   REMARKS
BAUDETTE       CLOUDY    15  11  83 SE6       29.64F WCI   6
FLAG ISLAND    CLOUDY    19  16  86 E5        29.63F WCI  13
INTL FALLS     CLOUDY    14  10  84 SE5       29.67F WCI   6
WASKISH        CLOUDY    18  16  93 CALM      29.65F
BIG FORK       CLOUDY    12  10  92 CALM      29.67F
LONGVILLE      CLOUDY    16  14  93 CALM      29.68F
GRAND RAPIDS   CLOUDY    15  13  91 SE5       29.70F WCI   8
CRANE LAKE     CLOUDY     9   7  92 CALM      29.72F
ORR            CLOUDY    16  12  86 CALM      29.66F
COOK           CLOUDY    12  10  92 CALM      29.68F
WALKER         FAIR      22  20  90 CALM      29.66F
$$
MNZ012-019>021-037-200900-
   Northeast Minnesota

CITY           SKY/WX    TMP DP  RH WIND       PRES   REMARKS
DULUTH         CLOUDY    20  18  92 SE3       29.72R
ELY            CLOUDY     9   9 100 CALM      29.70F
HIBBING        CLOUDY    11   8  88 CALM      29.70F
EVELETH        CLOUDY     9   5  85 CALM      29.71F
DULUTH HARBOR  CLOUDY    23  19  86 W3        29.77S
TWO HARBORS    PTCLDY    16  10  79 CALM      29.73R
SILVER BAY     CLOUDY    12  12 100 CALM      29.73S
GRAND MARAIS     N/A     21  16  81 NW5       29.79S WCI  15
G MARAIS ARPRT CLOUDY    10   7  85 CALM      29.71S
$$
MNZ029>031-032-039>041-046>048-054>057-064-200900-
   West Central Minnesota

CITY           SKY/WX    TMP DP  RH WIND       PRES   REMARKS
FERGUS FALLS   CLOUDY    27  21  80 SE8       29.69F WCI  18
WHEATON        CLOUDY    23  19  86 SE7       29.69F WCI  15
MORRIS         CLOUDY    25  21  86 SE8       29.68F WCI  16
ALEXANDRIA     CLOUDY    27  22  81 S3        29.69F
ELBOW LAKE     FAIR      28  23  83 E6        29.68F WCI  21
WADENA         CLOUDY    19  18  93 S3        29.67F
GLENWOOD       CLOUDY    28  23  80 S6        29.71S WCI  22
APPLETON       CLOUDY    23  19  86 SE3       29.70F
BENSON         CLOUDY    23  19  86 CALM      29.72F
ORTONVILLE     CLOUDY    28  21  74 MISG      29.69F
MADISON        CLOUDY    28  21  74 S3        29.70F
WILLMAR        FAIR      27  25  93 SE3       29.73F
$$
MNZ033>034-036-042>043-049>051-058-059-200900-
   Central Minnesota

CITY           SKY/WX    TMP DP  RH WIND       PRES   REMARKS
ST CLOUD       CLOUDY    22  21  96 SE5       29.73F WCI  16
SAUK CENTRE    FAIR      27  23  85 CALM      29.72S
PAYNESVILLE    CLOUDY    27  25  92 CALM      29.73S
AITKIN         CLOUDY    16  14  93 CALM      29.69F
PINE RIVER     CLOUDY    18  16  93 CALM      29.72F
BRAINERD       CLOUDY    22  18  85 CALM      29.70F
STAPLES        CLOUDY    21  21 100 CALM      29.68F
LONG PRAIRIE   FAIR      27  23  86 CALM      29.71F
LITTLE FALLS   CLOUDY    23  19  86 CALM      29.71F
LITCHFIELD     CLOUDY    30  27  86 CALM      29.73F
BUFFALO        CLEAR     29  24  79 CALM      29.76S
MAPLE LAKE     CLEAR     29  25  86 CALM      29.75S
HUTCHINSON     CLOUDY    28  25  86 CALM      29.74F
$$
MNZ037-044-045-052-053-200900-
   East Central Minnesota

CITY           SKY/WX    TMP DP  RH WIND       PRES   REMARKS
PRINCETON      CLEAR     21  19  93 CALM      29.73F
MORA           CLOUDY    19  18  93 CALM      29.75S
CAMBRIDGE      CLEAR     25  19  80 CALM      29.75S
RUSH CITY      CLOUDY    28  23  84 CALM      29.74F
MOOSE LAKE     CLOUDY    18  16  93 CALM      29.72S
HINCKLEY       FAIR      19  19 100 CALM      29.74S
CLOQUET        CLOUDY    21  16  79 CALM      29.72S
MCGREGOR       CLOUDY    19  18  93 CALM      29.71F
$$
MNZ071>073-080-081-089-090-097-098-200900-
   Southwest Minnesota

CITY           SKY/WX    TMP DP  RH WIND       PRES   REMARKS
MONTEVIDEO     CLOUDY    28  23  80 CALM      29.72S
GRANITE FALLS  CLOUDY    29  24  81 SE6       29.73F WCI  23
CANBY          CLOUDY    40  25  56 SW3       29.70F
REDWOOD FALLS  CLEAR     31  22  69 SE3       29.73F
OLIVIA         CLOUDY    30  25  80 S6        29.73F WCI  24
PIPESTONE      CLOUDY    28  21  74 SE6       29.71F WCI  22
WINDOM         CLOUDY    34  19  55 CALM      29.74F
WORTHINGTON    CLOUDY    33  24  69 SW9       29.74F WCI  25
JACKSON        CLOUDY    34  27  75 SW10      29.75F WCI  26
SLAYTON        CLEAR     33  25  70 SW14      29.73F WCI  24
$$
MNZ065>067-074>077-082>085-091>093-200900-
   South Central Minnesota

CITY           SKY/WX    TMP DP  RH WIND       PRES   REMARKS
MANKATO        CLEAR     30  26  85 S9        29.77F WCI  22
NEW ULM        CLEAR     27  21  80 CALM      29.74F
ST JAMES       CLOUDY    30  27  86 S6        29.76F WCI  24
FAIRMONT       CLOUDY    26  24  92 S8        29.77F WCI  18
GLENCOE        CLEAR     32  27  84 S5        29.74F WCI  27
FARIBAULT      CLEAR     32  27  80 S6        29.78F WCI  26
OWATONNA       CLEAR     32  27  80 S8        29.78F WCI  25
WASECA         CLEAR     32  28  86 S5        29.79F WCI  27
ALBERT LEA     CLOUDY    34  27  75 S5        29.79F WCI  30
$$
MNZ078>079-086>088-094>096-200900-
   Southeast Minnesota

CITY           SKY/WX    TMP DP  RH WIND       PRES   REMARKS
ROCHESTER      CLOUDY    30  26  85 S9        29.81S WCI  22
RED WING       CLEAR     30  25  80 CALM      29.78F
STANTON        CLEAR     34  28  79 S6        29.76F WCI  28
DODGE CENTER   CLEAR     30  27  86 S9        29.79F WCI  22
WINONA         CLEAR     34  28  80 NE3       29.84S
AUSTIN         CLOUDY    30  25  80 S5        29.80F WCI  25
PRESTON        CLOUDY    32  26  77 SW13      29.82S WCI  22
$$
ABBREVIATIONS USED IN REMARKS
   TC - TEMPERATURES IN CELSIUS
  WCI - WIND CHILL INDEX
   HX - HEAT INDEX
  VSB - VISIBILITY
$$



USA.gov is the U.S. government's official web portal to all federal, state and local government web resources and services.